Tracking 20083 objects as of 11-Dec-2019
HD Live streaming from Space Station
objects crossing your sky now

FENGYUN 1C DEB

Track FENGYUN 1C DEB now!
10-day predictions


NORAD ID: 37433
Int'l Code: 1999-025EHB
Perigee: 760.9 km
Apogee: 1,158.6 km
Inclination: 98.1 °
Period: 104.1 minutes
Semi major axis: 7330 km
RCS: 0.0091 m2 (small)
Launch date: May 10, 1999
Source: People's Republic of China (PRC)
Launch site: Taiyaun Space Center, China (TSC)

Note: This is SATELLITE DEBRIS
aabbcc
Your satellite tracking list
Your tracking list is empty




NASA's NSSDC Master Catalog

Two Line Element Set (TLE):
1 37433U 99025EHB 19271.08124609 +.00000291 +00000-0 +22302-3 0  9999
2 37433 098.1275 004.2972 0271291 066.6620 296.2833 13.83189417113841
Source of the keplerian elements: AFSPC